This is the latest recevied weather packets stored in our database for station/object HS1AXC-1. If no packets are shown the sender has not sent any weather packets the latest 10 day(s).
| Time | Temp. | Humidity | Pressure | Rain* | Wind** | Luminosity | Snow |
|---|---|---|---|---|---|---|---|
| 1777470086 | 35° C | 75% | 1008 hPa | - | - | 0 W/m² | - |
| 1777469464 | 35° C | 74% | 1008 hPa | - | - | 0 W/m² | - |
| 1777468842 | 35° C | 73% | 1008 hPa | - | - | 0 W/m² | - |
| 1777468220 | 35° C | 71% | 1007 hPa | - | - | 0 W/m² | - |
| 1777467598 | 35° C | 67% | 1007 hPa | - | - | 0 W/m² | - |
| 1777466976 | 35° C | 65% | 1008 hPa | - | - | 0 W/m² | - |
| 1777466354 | 35.56° C | 62% | 1007 hPa | - | - | 0 W/m² | - |
| 1777465732 | 36.11° C | 60% | 1007 hPa | - | - | 0 W/m² | - |
| 1777465110 | 36.11° C | 59% | 1007 hPa | - | - | 0 W/m² | - |
| 1777464487 | 36.11° C | 59% | 1007 hPa | - | - | 0 W/m² | - |
| 1777463865 | 36.11° C | 57% | 1007 hPa | - | - | 0 W/m² | - |
| 1777463144 | 36.67° C | 55% | 1007 hPa | - | - | 0 W/m² | - |
| 1777462380 | 37.22° C | 54% | 1007 hPa | - | - | 0 W/m² | - |
| 1777461758 | 36.67° C | 56% | 1006 hPa | - | - | 0 W/m² | - |
| 1777461136 | 37.22° C | 55% | 1006 hPa | - | - | 0 W/m² | - |
| 1777460486 | 36.11° C | 54% | 1006 hPa | - | - | 0 W/m² | - |
| 1777459864 | 36.67° C | 55% | 1006 hPa | - | - | 0 W/m² | - |
| 1777459242 | 37.22° C | 53% | 1006 hPa | - | - | 0 W/m² | - |
| 1777458620 | 37.22° C | 54% | 1006 hPa | - | - | 0 W/m² | - |
| 1777457782 | 36.67° C | 56% | 1006 hPa | - | - | 0 W/m² | - |
| 1777457160 | 37.22° C | 54% | 1006 hPa | - | - | 0 W/m² | - |
| 1777456845 | 36.67° C | 54% | 1006 hPa | - | - | 0 W/m² | - |
| 1777456223 | 36.67° C | 55% | 1006 hPa | - | - | 1 W/m² | - |
| 1777455601 | 37.22° C | 53% | 1006 hPa | - | - | 1 W/m² | - |
| 1777454979 | 38.33° C | 52% | 1006 hPa | - | - | 1 W/m² | - |
* Rain since midnight (hover to see other rain measurements)
** Current wind speed in m/s (hover to see current wind gust speed)